2019-072D

Last updated on Nov. 16, 2019, 12:02 a.m. UTC

1 44706U 19072D   19319.68691626  .00185891  00000-0  75524-2 0  9994
2 44706  97.4912  32.4140 0017254 232.8402 250.5220 15.23618045  1900

Satellite is not in orbit.